{"data":{"norad_id":68291,"intl_designator":"2026-056A","name":"STRIX-6","alt_names":[],"object_type":"PAYLOAD","status":"ACTIVE","operator":null,"country":"JPN","launch_date":"2026-03-20","launch_site_code":"RLLB","launch_vehicle":null,"mission":null,"orbit_class":"UNKNOWN","rcs_meters":null,"size_class":null,"mass_kg":null,"dimensions":null,"purposes":[],"wikipedia_slug":null,"has_3d_model":false,"image_url":null,"decayed_at":null,"tle_current":{"epoch":"2026-09-20T00:48:28.480608Z","epoch_age_seconds":112541,"freshness":"FRESH","line1":"1 68291U 26056A   26263.03366297  .00002797  00000+0  23817-3 0  9998","line2":"2 68291  50.2817 261.2751 0016335 251.1496 108.7682 15.00763571 27513","mean_motion":15.00763571,"eccentricity":0.0016335,"inclination_deg":50.2817,"raan_deg":261.2751,"arg_perigee_deg":251.1496,"mean_anomaly_deg":108.7682,"bstar":0.00023817,"rev_number":2751,"period_min":95.951156319745,"perigee_km":553.19958093754,"apogee_km":575.88130814887,"semimajor_km":6942.6774445432,"source":"CELESTRAK","updated_at":"2026-09-20T09:00:24.118395Z"}}}